Tracking 28790 objects as of 19-Apr-2024
HD Live streaming from Space Station
objects crossing your sky now

MOLNIYA 1-69

Track MOLNIYA 1-69 now!
MOLNIYA 1-69 is classified as:


NORAD ID: 17078
Int'l Code: 1986-089A
Perigee: 1,627.6 km
Apogee: 38,754.1 km
Inclination: 63.9 °
Period: 718.0 minutes
Semi major axis: 26561 km
RCS: 14.8739 m2 (large)
Launch date: November 15, 1986
Source: Commonwealth of Independent States (former USSR) (CIS)
Launch site: PLESETSK MISSILE AND SPACE COMPLEX (PKMTR)
Your satellite tracking list
Your tracking list is empty




NASA's NSSDC Master Catalog

Two Line Element Set (TLE):
1 17078U 86089A   24109.35167409 -.00000489  00000-0  00000-0 0  9997
2 17078  63.8827 117.4676 6988683 253.0795  24.8655  2.00546722274292
Source of the keplerian elements: AFSPC